Location: Recife
(8.0585°S, 34.8848°W)
Time: 20:54:21
(UTC-03:00)

Altair - Pass Details

Date: 22 April 2026
Orbit: 1501 x 1682 km, 47.2° (Epoch: 17 May)

Event Time Altitude Azimuth Distance (km) Brightness Sun altitude
Rises 07:00:14 0° 222° (SW) 4,821 9.6 22.8°
Reaches altitude 10° 07:03:18 10° 222° (SW) 3,856 9.2 23.5°
Maximum altitude 07:13:14 84° 309° (NW) 1,670 8.1 25.9°
Drops below altitude 10° 07:23:24 10° 37° (NE) 3,932 10.6 28.2°
Sets 07:26:34 0° 38° (NE) 4,920 11.0 29.0°
